Location: Los Ranchitos
(37.9930°N, 122.5425°W)
Time: 06:42:51
(UTC+00:00)

YAOGAN 1 - Pass Details

Date: 21 September 2020
Orbit: 618 x 620 km, 97.9° (Epoch: 26 October)

Event Time Altitude Azimuth Distance (km) Brightness Sun altitude
Rises 02:59:34 0° 170° (S) 2,881 5.8 -10.7°
Reaches altitude 10° 03:01:44 10° 172° (S) 1,980 5.0 -11.1°
Maximum altitude 03:06:02 75° 258° (WSW) 647 2.8 -12.0°
Drops below altitude 10° 03:10:23 10° 344° (NNW) 1,994 5.5 -12.8°
Sets 03:12:35 0° 346° (NNW) 2,905 6.4 -13.2°
